[[{"header":{"parameterUnit":"m.s-1","parameterCategory":1,"la1":30.2992,"la2":30.254,"lo1":-89.0895,"lo2":-89.0443,"dy":0.0025,"dx":0.0025,"nx":19,"ny":19,"refTime":"2026-05-13T09:00:00:Z","depth":0,"parameterNumber":2,"parameterNumberName":"U-component_of_WINDS"},"data":[0,0,0,-4.4677,-4.4678,-4.4722,-4.4722,-4.4827,-4.4829,0,0,0,0,0,0,0,0,0,0,0,-4.4694,-4.4696,-4.4676,-4.4678,-4.4722,-4.4722,-4.4827,-4.4829,0,0,0,0,0,0,0,0,0,0,0,-4.4693,-4.4696,-4.4698,-4.4679,-4.4722,-4.4722,-4.4827,-4.4776,0,0,0,0,0,0,0,0,0,0,-4.4725,-4.4771,-4.4695,-4.4698,-4.4679,-4.4722,-4.4722,-4.4773,-4.4779,-4.4829,0,-4.4882,0,-4.4857,-4.4839,-4.4839,0,0,0,-4.4656,-4.4766,-4.475,-4.4698,-4.468,-4.4722,-4.4696,-4.4776,-4.4783,-4.4838,-4.4883,-4.4885,-4.4859,-4.484,-4.4841,-4.5204,-4.5207,0,0,-4.4653,-4.4718,-4.4746,-4.4757,-4.4753,-4.4695,-4.4697,-4.4779,-4.4832,-4.4883,-4.4887,-4.4861,-4.4841,-4.4842,-4.5202,-4.5205,0,0,0,-4.4662,-4.4718,-4.4699,-4.4754,-4.4758,-4.4696,-4.47,-4.4829,-4.4817,-4.4887,-4.4862,-4.4842,-4.4844,-4.5199,-4.5203,-4.5403,0,0,0,-4.4659,-4.4722,-4.4699,-4.4739,-4.4757,-4.4794,-4.4748,-4.4811,-4.4818,-4.4861,-4.4842,-4.4845,-4.5195,-4.5201,-4.5391,-4.5486,0,0,0,-4.4681,-4.4725,-4.4741,-4.4743,-4.4764,-4.4791,-4.4783,-4.4811,-4.4804,-4.484,-4.4846,-4.5193,-4.52,-4.538,-4.5468,-4.5601,0,0,0,-4.4723,-4.4919,-4.4746,-4.4954,-4.4764,-4.4915,-4.4782,-4.4891,-4.4945,-4.4843,-4.5196,-4.5203,-4.5376,-4.5457,-4.559,-4.5724,-4.5786,0,0,-4.5006,-4.4955,-4.5072,-4.4919,-4.5117,-4.4903,-4.513,-4.5118,-4.5061,-4.516,-4.5168,-4.5395,-4.5467,-4.5598,-4.6113,-4.6163,0,0,0,-4.5184,-4.527,-4.5308,-4.5362,-4.5358,-4.5362,-4.5308,-4.5304,-4.5384,-4.5126,-4.5476,-4.5517,-4.5592,-4.5653,-4.5696,-4.5755,-4.5234,-4.5233,-4.5232,-4.5678,-4.5596,-4.5784,-4.5708,-4.5763,-4.5705,-4.5742,-4.5726,-4.5627,-4.5712,-4.574,-4.6062,-4.6136,-4.6168,-4.6231,-4.5805,-4.5805,-4.5806,-4.5807,-4.6085,-4.6192,-4.6056,-4.619,-4.6103,-4.6214,-4.6167,-4.6093,-4.6185,-4.6034,-4.6095,-4.5938,-4.6225,-4.6276,-4.5821,-4.5818,-4.5817,-4.5815,-4.5814,-4.6399,-4.6436,-4.6427,-4.6498,-4.6562,-4.6477,-4.6571,-4.6487,-4.6409,-4.647,-4.6491,-4.6488,-4.6473,-4.6486,-4.6487,-4.6489,-4.6489,-4.649,-4.6491,-4.6728,-4.6711,-4.68,-4.6813,-4.6837,-4.6858,-4.6803,-4.6825,-4.6827,-4.6759,-4.6758,-4.6652,-4.6269,-4.6174,-4.6508,-4.6505,-4.6503,-4.6501,-4.65,-4.7169,-4.7056,-4.7195,-4.7219,-4.7226,-4.7295,-4.7188,-4.7239,-4.7245,-4.7294,-4.7174,-4.6905,-4.6846,-4.6812,-4.6733,-4.7191,-4.7191,-4.7191,-4.7191,-4.7434,-4.7396,-4.7518,-4.7563,-4.7597,-4.7514,-4.7673,-4.7633,-4.7574,-4.7572,-4.7494,-4.7383,-4.7351,-4.7311,-4.7266,-4.7191,-4.7755,-4.7756,-4.7756,-4.77,-4.7662,-4.7814,-4.7753,-4.7753,-4.7756,-4.7903,-4.796,-4.7869,-4.7778,-4.7569,-4.7546,-4.7364,-4.731,-4.7213,-4.7145,-4.7005,0,0]},{"header":{"parameterUnit":"m.s-1","parameterCategory":1,"la1":30.2992,"la2":30.254,"lo1":-89.0895,"lo2":-89.0443,"dy":0.0025,"dx":0.0025,"nx":19,"ny":19,"refTime":"2026-05-13T09:00:00:Z","depth":0,"parameterNumber":3,"parameterNumberName":"V-component_of_WINDS"},"data":[0,0,0,-0.0998,-0.0999,-0.1061,-0.1061,-0.1122,-0.1123,0,0,0,0,0,0,0,0,0,0,0,-0.0968,-0.0968,-0.0998,-0.0999,-0.1061,-0.1061,-0.1122,-0.1123,0,0,0,0,0,0,0,0,0,0,0,-0.0968,-0.0968,-0.0968,-0.0999,-0.1061,-0.1062,-0.1122,-0.1082,0,0,0,0,0,0,0,0,0,0,-0.1025,-0.0986,-0.0968,-0.0968,-0.1,-0.1061,-0.1062,-0.108,-0.1085,-0.1086,0,-0.1084,0,-0.1104,-0.1125,-0.1125,0,0,0,-0.1008,-0.0982,-0.1009,-0.0968,-0.1,-0.1061,-0.1036,-0.1083,-0.1088,-0.1091,-0.1085,-0.1087,-0.1105,-0.1126,-0.1126,-0.11,-0.1099,0,0,-0.1005,-0.0973,-0.1006,-0.1012,-0.1,-0.1034,-0.1038,-0.1086,-0.1077,-0.1085,-0.1089,-0.1106,-0.1126,-0.1126,-0.11,-0.1099,0,0,0,-0.0989,-0.0971,-0.0997,-0.1009,-0.1021,-0.1035,-0.104,-0.1075,-0.1086,-0.109,-0.1106,-0.1126,-0.1127,-0.1101,-0.11,-0.104,0,0,0,-0.0987,-0.0961,-0.0995,-0.0976,-0.102,-0.1049,-0.1027,-0.1083,-0.1089,-0.1106,-0.1126,-0.1127,-0.1101,-0.11,-0.1043,-0.1017,0,0,0,-0.0968,-0.0959,-0.0964,-0.0974,-0.1,-0.1049,-0.1063,-0.1085,-0.1099,-0.1126,-0.1127,-0.1102,-0.1101,-0.1046,-0.1021,-0.0999,0,0,0,-0.0939,-0.0912,-0.0962,-0.0939,-0.0999,-0.1011,-0.1063,-0.1074,-0.109,-0.1126,-0.1101,-0.11,-0.1046,-0.1024,-0.1001,-0.0973,-0.0958,0,0,-0.0887,-0.0905,-0.0893,-0.094,-0.0935,-0.1004,-0.0991,-0.1036,-0.1069,-0.1088,-0.1087,-0.1042,-0.1022,-0.0999,-0.089,-0.0878,0,0,0,-0.0866,-0.0857,-0.0863,-0.0875,-0.0908,-0.0933,-0.0984,-0.1001,-0.1017,-0.1072,-0.1029,-0.1019,-0.1007,-0.0994,-0.0984,-0.0975,-0.1093,-0.1093,-0.1094,-0.0748,-0.0789,-0.0772,-0.0819,-0.0831,-0.0882,-0.0894,-0.0925,-0.0966,-0.0955,-0.096,-0.0889,-0.0873,-0.0866,-0.0856,-0.095,-0.095,-0.0949,-0.0949,-0.0675,-0.0668,-0.0719,-0.072,-0.0764,-0.0766,-0.0813,-0.0841,-0.0849,-0.0889,-0.0881,-0.092,-0.0852,-0.0845,-0.0945,-0.0946,-0.0946,-0.0947,-0.0947,-0.0602,-0.0605,-0.0624,-0.0644,-0.0655,-0.0705,-0.0708,-0.0749,-0.0787,-0.0779,-0.0788,-0.0789,-0.0793,-0.078,-0.078,-0.078,-0.078,-0.0779,-0.0779,-0.0517,-0.0541,-0.0538,-0.0568,-0.058,-0.06,-0.0649,-0.0662,-0.0687,-0.0716,-0.0716,-0.0755,-0.0838,-0.0857,-0.0776,-0.0776,-0.0777,-0.0777,-0.0777,-0.0426,-0.0452,-0.0449,-0.046,-0.0497,-0.0503,-0.0554,-0.0576,-0.0593,-0.0593,-0.0634,-0.0689,-0.071,-0.0718,-0.0734,-0.0626,-0.0626,-0.0626,-0.0626,-0.0363,-0.0377,-0.038,-0.0395,-0.0414,-0.0458,-0.0452,-0.0489,-0.0532,-0.0544,-0.0566,-0.0591,-0.0598,-0.0615,-0.0625,-0.0641,-0.0511,-0.0511,-0.0511,-0.0308,-0.0325,-0.0312,-0.0352,-0.0383,-0.0409,-0.0403,-0.0418,-0.0473,-0.0507,-0.0555,-0.0559,-0.06,-0.0611,-0.0647,-0.0662,-0.0691,0,0]}]]